Location: Austin
(30.3000°N, 97.7500°W)
Time: 22:46:05
(UTC-06:00)

NOAA 12 - Pass Details

Date: 03 December 2025
Orbit: 793 x 812 km, 98.6° (Epoch: 07 December)

Event Time Altitude Azimuth Distance (km) Brightness Sun altitude
Rises 05:40:13 0° 9° (N) 3,325 7.2 -19.4°
Reaches altitude 10° 05:42:34 10° 7° (N) 2,388 6.5 -18.9°
Maximum altitude 05:47:49 71° 285° (WNW) 849 4.0 -17.8°
Drops below altitude 10° 05:53:00 10° 202° (SSW) 2,364 6.5 -16.7°
Sets 05:55:20 0° 200° (SSW) 3,288 7.2 -16.2°
